Location: Arcueil
(48.7999°N, 2.3326°E)
Time: 05:50:34
(UTC+00:00)

UWE-3 - Visible Passes

Search period start: 22 June 2024 00:00
Search period end: 02 July 2024 00:00
Orbit: 568 x 651 km, 97.8° (Epoch: 21 June)

Date Brightness Start Highest point End Pass type
(mag) Time Alt. Az. Time Alt. Az. Time Alt. Az.
22 Jun ? 01:18:34 10° NE 01:21:11 16° E 01:23:46 10° SE visible
22 Jun ? 02:53:19 10° N 02:57:31 58° WNW 03:01:35 10° SSW visible
23 Jun ? 01:32:12 10° NE 01:35:28 21° E 01:38:41 10° SE visible
24 Jun ? 01:46:01 10° NNE 01:49:44 29° E 01:53:21 10° SSE visible
25 Jun ? 01:59:57 10° NNE 02:03:57 40° E 02:07:50 10° SSE visible
26 Jun ? 02:13:58 10° NNE 02:18:08 56° E 02:22:10 10° S visible
27 Jun ? 02:28:03 10° NNE 02:32:16 79° ESE 02:36:22 10° S visible
28 Jun ? 01:08:15 10° ENE 01:09:54 12° E 01:11:30 10° ESE visible
28 Jun ? 02:42:11 10° N 02:46:23 75° WNW 02:50:28 10° SSW visible
29 Jun ? 01:21:29 10° NE 01:24:10 17° E 01:26:49 10° SE visible
29 Jun ? 02:56:22 10° N 03:00:27 53° WNW 03:04:26 10° SSW visible
30 Jun ? 01:35:06 10° NE 01:38:24 22° E 01:41:38 10° SE visible
01 Jul ? 01:48:54 10° NNE 01:52:37 30° E 01:56:14 10° SSE visible
